TimeEDT,TemperatureF,Dew PointF,Humidity,Sea Level PressureIn,VisibilityMPH,Wind Direction,Wind SpeedMPH,Gust SpeedMPH,PrecipitationIn,Events,Conditions,WindDirDegrees,DateUTC
12:14 AM,37.0,28.0,70,29.76,10.0,WNW,9.2,-,N/A,,Scattered Clouds,300,2013-04-01 04:14:00
12:34 AM,36.5,27.9,71,29.76,10.0,WNW,11.5,-,N/A,,Scattered Clouds,300,2013-04-01 04:34:00
1:14 AM,36.1,28.6,74,29.76,10.0,WNW,10.4,-,N/A,,Mostly Cloudy,300,2013-04-01 05:14:00
1:34 AM,36.5,28.2,72,29.76,10.0,NW,11.5,18.4,N/A,,Overcast,310,2013-04-01 05:34:00
1:54 AM,35.6,27.0,71,29.77,10.0,NW,12.7,16.1,N/A,,Mostly Cloudy,310,2013-04-01 05:54:00
2:14 AM,35.2,27.3,73,29.78,10.0,NW,11.5,-,N/A,,Overcast,310,2013-04-01 06:14:00
2:34 AM,34.2,28.0,78,29.79,10.0,NW,11.5,20.7,N/A,,Mostly Cloudy,310,2013-04-01 06:34:00
2:54 AM,33.8,28.2,80,29.79,10.0,NW,10.4,-,N/A,,Mostly Cloudy,310,2013-04-01 06:54:00
3:14 AM,32.0,24.4,74,29.81,7.0,NNW,15.0,27.6,N/A,Snow,Light Snow,340,2013-04-01 07:14:00
3:34 AM,32.0,21.4,65,29.82,10.0,NNW,12.7,-,N/A,,Overcast,330,2013-04-01 07:34:00
4:14 AM,30.6,20.1,65,29.84,10.0,NNW,12.7,23.0,N/A,,Scattered Clouds,330,2013-04-01 08:14:00
4:34 AM,29.8,21.2,70,29.84,10.0,NW,8.1,-,N/A,,Scattered Clouds,320,2013-04-01 08:34:00
4:55 AM,29.3,20.7,70,29.86,10.0,NW,6.9,-,N/A,,Clear,320,2013-04-01 08:55:00
5:14 AM,28.9,19.9,69,29.87,10.0,NW,8.1,-,N/A,,Clear,310,2013-04-01 09:14:00
5:34 AM,28.4,19.4,69,29.88,10.0,NW,8.1,-,N/A,,Clear,310,2013-04-01 09:34:00
6:14 AM,28.0,17.4,64,29.90,10.0,NNW,11.5,16.1,N/A,,Clear,330,2013-04-01 10:14:00
6:34 AM,27.5,17.4,66,29.91,10.0,NNW,8.1,-,N/A,,Clear,330,2013-04-01 10:34:00
7:14 AM,26.4,17.4,69,29.92,10.0,WNW,4.6,-,N/A,,Clear,300,2013-04-01 11:14:00
7:35 AM,26.6,17.2,68,29.93,10.0,NW,6.9,-,N/A,,Clear,320,2013-04-01 11:35:00
7:54 AM,27.3,17.6,67,29.94,10.0,NNW,4.6,-,N/A,,Clear,330,2013-04-01 11:54:00
8:14 AM,28.4,17.8,64,29.95,10.0,NW,5.8,-,N/A,,Clear,310,2013-04-01 12:14:00
8:34 AM,29.3,18.0,63,29.96,10.0,NW,8.1,-,N/A,,Clear,320,2013-04-01 12:34:00
8:54 AM,30.4,18.1,60,29.97,10.0,NW,8.1,-,N/A,,Clear,320,2013-04-01 12:54:00
9:14 AM,30.6,18.3,60,29.98,10.0,NNW,16.1,19.6,N/A,,Scattered Clouds,330,2013-04-01 13:14:00
9:34 AM,31.6,18.7,59,29.98,10.0,NW,17.3,24.2,N/A,,Mostly Cloudy,320,2013-04-01 13:34:00
10:14 AM,32.0,16.9,54,29.99,10.0,NW,12.7,20.7,N/A,,Scattered Clouds,310,2013-04-01 14:14:00
10:34 AM,32.0,14.4,48,29.99,10.0,NW,15.0,23.0,N/A,,Scattered Clouds,310,2013-04-01 14:34:00
10:54 AM,32.2,13.6,46,30.00,10.0,NW,12.7,20.7,N/A,,Overcast,320,2013-04-01 14:54:00
11:14 AM,34.9,11.5,38,30.01,10.0,NW,16.1,21.9,N/A,,Mostly Cloudy,320,2013-04-01 15:14:00
11:34 AM,35.1,11.1,37,30.01,10.0,NNW,13.8,21.9,N/A,,Mostly Cloudy,330,2013-04-01 15:34:00
11:54 AM,34.7,13.1,41,30.01,10.0,NW,15.0,19.6,N/A,,Overcast,310,2013-04-01 15:54:00
12:14 PM,34.3,11.8,39,30.02,10.0,WNW,18.4,23.0,N/A,,Mostly Cloudy,300,2013-04-01 16:14:00
12:34 PM,35.1,10.0,35,30.02,10.0,WNW,13.8,24.2,N/A,,Mostly Cloudy,290,2013-04-01 16:34:00
12:54 PM,36.1,11.5,36,30.02,10.0,West,15.0,21.9,N/A,,Mostly Cloudy,280,2013-04-01 16:54:00
1:14 PM,36.0,11.7,37,30.02,10.0,WNW,19.6,24.2,N/A,,Mostly Cloudy,300,2013-04-01 17:14:00
1:34 PM,36.0,8.8,32,30.02,10.0,WNW,11.5,27.6,N/A,,Mostly Cloudy,290,2013-04-01 17:34:00
1:55 PM,34.9,10.2,36,30.03,10.0,NW,17.3,25.3,N/A,,Mostly Cloudy,310,2013-04-01 17:55:00
2:14 PM,38.5,10.2,31,30.02,10.0,WNW,11.5,24.2,N/A,,Overcast,300,2013-04-01 18:14:00
2:34 PM,38.1,10.0,31,30.03,10.0,WNW,18.4,27.6,N/A,,Mostly Cloudy,290,2013-04-01 18:34:00
2:54 PM,37.2,9.7,32,30.03,10.0,WNW,17.3,25.3,N/A,,Mostly Cloudy,290,2013-04-01 18:54:00
3:14 PM,35.8,9.3,33,30.03,10.0,WNW,18.4,25.3,N/A,,Overcast,290,2013-04-01 19:14:00
3:34 PM,36.3,11.1,35,30.04,10.0,WNW,18.4,26.5,N/A,,Overcast,300,2013-04-01 19:34:00
3:54 PM,36.9,12.0,36,30.04,10.0,NW,19.6,29.9,N/A,,Overcast,310,2013-04-01 19:54:00
4:14 PM,33.6,12.0,41,30.04,10.0,NW,18.4,21.9,N/A,,Overcast,310,2013-04-01 20:14:00
4:34 PM,37.0,11.1,34,30.05,10.0,WNW,17.3,26.5,N/A,,Mostly Cloudy,300,2013-04-01 20:34:00
4:54 PM,34.7,10.0,36,30.05,10.0,West,18.4,28.8,N/A,,Mostly Cloudy,270,2013-04-01 20:54:00
5:14 PM,34.7,10.8,37,30.05,10.0,West,17.3,26.5,N/A,,Scattered Clouds,280,2013-04-01 21:14:00
5:34 PM,34.3,9.5,36,30.06,10.0,WNW,17.3,25.3,N/A,,Mostly Cloudy,290,2013-04-01 21:34:00
6:14 PM,31.5,10.4,42,30.07,10.0,NW,16.1,25.3,N/A,,Clear,310,2013-04-01 22:14:00
6:34 PM,31.1,10.0,41,30.07,10.0,WNW,15.0,20.7,N/A,,Clear,300,2013-04-01 22:34:00
6:54 PM,32.0,10.0,40,30.07,10.0,NW,16.1,20.7,N/A,,Scattered Clouds,310,2013-04-01 22:54:00
7:14 PM,31.6,10.4,41,30.08,10.0,NW,13.8,-,N/A,,Mostly Cloudy,310,2013-04-01 23:14:00
7:34 PM,30.7,10.2,42,30.08,10.0,NW,13.8,18.4,N/A,,Mostly Cloudy,310,2013-04-01 23:34:00
7:54 PM,29.8,10.6,45,30.08,10.0,NW,12.7,-,N/A,,Scattered Clouds,310,2013-04-01 23:54:00
8:14 PM,29.1,11.7,48,30.08,10.0,NW,10.4,-,N/A,,Clear,310,2013-04-02 00:14:00
8:34 PM,28.2,12.2,51,30.09,10.0,NW,9.2,-,N/A,,Clear,310,2013-04-02 00:34:00
8:54 PM,27.7,13.1,54,30.09,10.0,WNW,5.8,-,N/A,,Clear,300,2013-04-02 00:54:00
9:15 PM,27.5,13.1,55,30.09,10.0,WNW,8.1,-,N/A,,Clear,300,2013-04-02 01:15:00
9:34 PM,27.3,12.9,55,30.10,10.0,NW,4.6,-,N/A,,Clear,320,2013-04-02 01:34:00
9:54 PM,27.0,13.8,58,30.10,10.0,NW,3.5,-,N/A,,Mostly Cloudy,310,2013-04-02 01:54:00
10:15 PM,27.3,14.0,57,30.10,10.0,NW,3.5,-,N/A,,Overcast,310,2013-04-02 02:15:00
10:34 PM,26.6,13.5,58,30.11,10.0,Calm,Calm,-,N/A,,Mostly Cloudy,0,2013-04-02 02:34:00
10:54 PM,26.6,13.6,58,30.11,10.0,Calm,Calm,-,N/A,,Clear,0,2013-04-02 02:54:00
11:14 PM,25.9,14.0,61,30.11,10.0,Calm,Calm,-,N/A,,Clear,0,2013-04-02 03:14:00
11:34 PM,24.8,17.6,74,30.11,10.0,Calm,Calm,-,N/A,,Scattered Clouds,0,2013-04-02 03:34:00
11:54 PM,23.0,14.5,70,30.11,10.0,Calm,Calm,-,N/A,,Mostly Cloudy,0,2013-04-02 03:54:00